Time,TemperatureF,DewpointF,PressureIn,WindDirection,WindDirectionDegrees,WindSpeedMPH,WindSpeedGustMPH,Humidity,HourlyPrecipIn,Conditions,Clouds,dailyrainin,SoftwareType,DateUTC
2013-06-18 00:01:00,63.5,55.8,29.97,North,0,0.0,0.0,76,0.00,,,0.00,WUHU21623XXSP,2013-06-18 04:01:00,
2013-06-18 00:07:00,63.3,55.6,29.97,North,0,0.0,0.0,76,0.00,,,0.00,WUHU21623XXSP,2013-06-18 04:07:00,
2013-06-18 00:11:00,63.3,55.2,29.96,NNE,22,0.0,0.0,75,0.00,,,0.00,WUHU21623XXSP,2013-06-18 04:11:00,
2013-06-18 00:16:00,63.3,55.2,29.97,North,0,0.0,0.0,75,0.00,,,0.00,WUHU21623XXSP,2013-06-18 04:16:00,
2013-06-18 00:21:00,63.3,55.6,29.97,NNE,22,0.0,0.0,76,0.00,,,0.00,WUHU21623XXSP,2013-06-18 04:21:00,
2013-06-18 00:26:00,63.3,55.6,29.97,North,0,0.0,2.2,76,0.00,,,0.00,WUHU21623XXSP,2013-06-18 04:26:00,
2013-06-18 00:32:00,63.3,55.2,29.96,NE,45,0.0,3.1,75,0.00,,,0.00,WUHU21623XXSP,2013-06-18 04:32:00,
2013-06-18 00:37:00,63.1,55.0,29.95,ENE,67,0.0,3.1,75,0.00,,,0.00,WUHU21623XXSP,2013-06-18 04:37:00,
2013-06-18 00:42:00,63.0,54.9,29.95,NE,45,0.0,4.0,75,0.00,,,0.00,WUHU21623XXSP,2013-06-18 04:42:00,
2013-06-18 00:47:00,62.8,54.7,29.95,ENE,67,0.0,7.2,75,0.00,,,0.00,WUHU21623XXSP,2013-06-18 04:47:00,
2013-06-18 00:52:00,62.8,54.7,29.95,NNE,22,0.0,7.2,75,0.00,,,0.00,WUHU21623XXSP,2013-06-18 04:52:00,
2013-06-18 00:57:00,62.8,54.7,29.96,North,0,0.0,0.0,75,0.00,,,0.00,WUHU21623XXSP,2013-06-18 04:57:00,
2013-06-18 01:01:00,62.6,54.5,29.96,NNE,22,0.0,4.0,75,0.00,,,0.00,WUHU21623XXSP,2013-06-18 05:01:00,
2013-06-18 01:07:00,62.4,54.7,29.96,NNE,22,1.6,5.8,76,0.00,,,0.00,WUHU21623XXSP,2013-06-18 05:07:00,
2013-06-18 01:12:00,62.4,54.7,29.95,North,0,0.0,5.8,76,0.00,,,0.00,WUHU21623XXSP,2013-06-18 05:12:00,
2013-06-18 01:17:00,62.2,55.1,29.95,NNE,22,0.0,0.0,77,0.00,,,0.00,WUHU21623XXSP,2013-06-18 05:17:00,
2013-06-18 01:22:00,62.1,54.7,29.95,NNW,337,0.0,0.0,77,0.00,,,0.00,WUHU21623XXSP,2013-06-18 05:22:00,
2013-06-18 01:26:00,61.9,54.9,29.95,NNE,22,0.0,0.0,78,0.00,,,0.00,WUHU21623XXSP,2013-06-18 05:26:00,
2013-06-18 01:31:00,61.7,54.8,29.95,North,0,0.0,0.0,78,0.00,,,0.00,WUHU21623XXSP,2013-06-18 05:31:00,
2013-06-18 01:36:00,61.5,54.6,29.95,North,0,0.0,0.0,78,0.00,,,0.00,WUHU21623XXSP,2013-06-18 05:36:00,
2013-06-18 01:41:00,61.5,55.0,29.94,NNE,22,0.0,0.0,79,0.00,,,0.00,WUHU21623XXSP,2013-06-18 05:41:00,
2013-06-18 01:46:00,61.3,54.8,29.94,NNE,22,0.0,0.0,79,0.00,,,0.00,WUHU21623XXSP,2013-06-18 05:46:00,
2013-06-18 01:52:00,61.3,55.2,29.94,North,0,0.0,0.0,80,0.00,,,0.00,WUHU21623XXSP,2013-06-18 05:52:00,
2013-06-18 01:57:00,61.0,54.8,29.94,NNW,337,0.0,0.0,80,0.00,,,0.00,WUHU21623XXSP,2013-06-18 05:57:00,
2013-06-18 02:02:00,61.0,55.2,29.94,NNW,337,0.0,1.8,81,0.00,,,0.00,WUHU21623XXSP,2013-06-18 06:02:00,
2013-06-18 02:10:00,61.0,55.2,29.94,NNW,337,0.0,0.0,81,0.00,,,0.00,WUHU21623XXSP,2013-06-18 06:10:00,
2013-06-18 02:15:00,60.6,54.8,29.93,North,0,0.0,0.0,81,0.00,,,0.00,WUHU21623XXSP,2013-06-18 06:15:00,
2013-06-18 02:20:00,60.6,54.8,29.93,North,0,0.0,0.0,81,0.00,,,0.00,WUHU21623XXSP,2013-06-18 06:20:00,
2013-06-18 02:25:00,60.6,55.1,29.93,North,0,0.0,0.0,82,0.00,,,0.00,WUHU21623XXSP,2013-06-18 06:25:00,
2013-06-18 02:30:00,60.6,55.1,29.93,North,0,0.0,0.0,82,0.00,,,0.00,WUHU21623XXSP,2013-06-18 06:30:00,
2013-06-18 02:35:00,60.4,55.0,29.93,NNE,22,0.0,0.0,82,0.00,,,0.00,WUHU21623XXSP,2013-06-18 06:35:00,
2013-06-18 02:40:00,60.3,54.8,29.93,NNE,22,0.0,0.0,82,0.00,,,0.00,WUHU21623XXSP,2013-06-18 06:40:00,
2013-06-18 02:45:00,60.1,55.3,29.92,ENE,67,0.0,0.0,84,0.00,,,0.00,WUHU21623XXSP,2013-06-18 06:45:00,
2013-06-18 02:50:00,59.9,55.1,29.92,NE,45,0.0,0.0,84,0.00,,,0.00,WUHU21623XXSP,2013-06-18 06:50:00,
2013-06-18 02:55:00,59.9,55.4,29.93,NNE,22,0.0,5.8,85,0.00,,,0.00,WUHU21623XXSP,2013-06-18 06:55:00,
2013-06-18 03:00:00,59.9,55.4,29.92,ENE,67,0.0,6.5,85,0.00,,,0.00,WUHU21623XXSP,2013-06-18 07:00:00,
2013-06-18 03:05:00,59.9,55.4,29.92,ENE,67,0.0,6.5,85,0.00,,,0.00,WUHU21623XXSP,2013-06-18 07:05:00,
2013-06-18 03:10:00,59.9,55.4,29.92,ENE,67,0.0,0.0,85,0.00,,,0.00,WUHU21623XXSP,2013-06-18 07:10:00,
2013-06-18 03:15:00,59.7,55.5,29.93,ENE,67,0.0,3.8,86,0.00,,,0.00,WUHU21623XXSP,2013-06-18 07:15:00,
2013-06-18 03:20:00,59.5,55.4,29.93,ENE,67,0.0,3.8,86,0.00,,,0.00,WUHU21623XXSP,2013-06-18 07:20:00,
2013-06-18 03:25:00,59.5,55.7,29.93,NE,45,0.0,2.0,87,0.00,,,0.00,WUHU21623XXSP,2013-06-18 07:25:00,
2013-06-18 03:30:00,59.2,55.3,29.93,NE,45,0.0,0.9,87,0.00,,,0.00,WUHU21623XXSP,2013-06-18 07:30:00,
2013-06-18 03:35:00,58.8,55.0,29.93,NE,45,0.0,0.9,87,0.00,,,0.00,WUHU21623XXSP,2013-06-18 07:35:00,
2013-06-18 03:40:00,58.8,55.0,29.93,NE,45,0.0,0.0,87,0.00,,,0.00,WUHU21623XXSP,2013-06-18 07:40:00,
2013-06-18 03:45:00,58.8,55.0,29.93,ENE,67,0.0,0.0,87,0.00,,,0.00,WUHU21623XXSP,2013-06-18 07:45:00,
2013-06-18 03:50:00,58.8,55.3,29.93,ENE,67,0.0,0.0,88,0.00,,,0.00,WUHU21623XXSP,2013-06-18 07:50:00,
2013-06-18 03:55:00,58.8,55.3,29.93,East,90,0.0,1.8,88,0.00,,,0.00,WUHU21623XXSP,2013-06-18 07:55:00,
2013-06-18 04:00:00,58.8,55.6,29.92,ENE,67,0.0,7.6,89,0.00,,,0.00,WUHU21623XXSP,2013-06-18 08:00:00,
2013-06-18 04:05:00,58.8,55.6,29.92,ENE,67,0.0,7.6,89,0.00,,,0.00,WUHU21623XXSP,2013-06-18 08:05:00,
2013-06-18 04:10:00,58.8,55.6,29.92,ENE,67,0.0,0.0,89,0.00,,,0.00,WUHU21623XXSP,2013-06-18 08:10:00,
2013-06-18 04:15:00,58.8,55.9,29.92,ENE,67,0.0,5.8,90,0.00,,,0.00,WUHU21623XXSP,2013-06-18 08:15:00,
2013-06-18 04:20:00,58.8,55.9,29.92,NE,45,0.0,3.4,90,0.00,,,0.00,WUHU21623XXSP,2013-06-18 08:20:00,
2013-06-18 04:25:00,58.8,55.9,29.92,NE,45,0.0,3.4,90,0.00,,,0.00,WUHU21623XXSP,2013-06-18 08:25:00,
2013-06-18 04:30:00,58.8,55.9,29.92,NNE,22,0.0,9.2,90,0.00,,,0.00,WUHU21623XXSP,2013-06-18 08:30:00,
2013-06-18 04:35:00,58.8,55.9,29.93,ENE,67,0.0,9.2,90,0.00,,,0.00,WUHU21623XXSP,2013-06-18 08:35:00,
2013-06-18 04:40:00,58.8,55.9,29.92,NE,45,0.0,5.8,90,0.00,,,0.00,WUHU21623XXSP,2013-06-18 08:40:00,
2013-06-18 04:45:00,58.8,55.9,29.92,ENE,67,0.0,5.8,90,0.00,,,0.00,WUHU21623XXSP,2013-06-18 08:45:00,
2013-06-18 04:50:00,58.8,55.9,29.93,NE,45,0.0,9.4,90,0.00,,,0.00,WUHU21623XXSP,2013-06-18 08:50:00,
2013-06-18 04:55:00,58.8,56.2,29.93,NE,45,0.0,9.4,91,0.00,,,0.00,WUHU21623XXSP,2013-06-18 08:55:00,
2013-06-18 05:00:00,58.6,55.8,29.93,ENE,67,0.0,7.2,90,0.00,,,0.00,WUHU21623XXSP,2013-06-18 09:00:00,
2013-06-18 05:05:00,58.6,55.8,29.93,ENE,67,0.0,5.8,90,0.00,,,0.00,WUHU21623XXSP,2013-06-18 09:05:00,
2013-06-18 05:10:00,58.6,55.8,29.93,ENE,67,0.0,0.0,90,0.00,,,0.00,WUHU21623XXSP,2013-06-18 09:10:00,
2013-06-18 05:15:00,58.5,55.9,29.94,NE,45,6.5,7.6,91,0.00,,,0.00,WUHU21623XXSP,2013-06-18 09:15:00,
2013-06-18 05:20:00,58.3,55.7,29.94,NE,45,0.0,11.0,91,0.00,,,0.00,WUHU21623XXSP,2013-06-18 09:20:00,
2013-06-18 05:25:00,58.1,55.2,29.95,East,90,4.3,11.0,90,0.00,,,0.00,WUHU21623XXSP,2013-06-18 09:25:00,
2013-06-18 05:30:00,57.9,55.0,29.96,NE,45,0.0,7.8,90,0.00,,,0.00,WUHU21623XXSP,2013-06-18 09:30:00,
2013-06-18 05:35:00,57.7,54.9,29.96,ENE,67,4.9,6.3,90,0.00,,,0.00,WUHU21623XXSP,2013-06-18 09:35:00,
2013-06-18 05:40:00,57.7,54.5,29.96,East,90,0.0,6.0,89,0.00,,,0.00,WUHU21623XXSP,2013-06-18 09:40:00,
2013-06-18 05:45:00,57.7,54.5,29.96,NNE,22,0.7,7.6,89,0.00,,,0.00,WUHU21623XXSP,2013-06-18 09:45:00,
2013-06-18 05:50:00,57.6,54.4,29.96,NE,45,0.0,7.6,89,0.00,,,0.00,WUHU21623XXSP,2013-06-18 09:50:00,
2013-06-18 05:55:00,57.4,54.2,29.97,NNE,22,0.0,8.3,89,0.00,,,0.00,WUHU21623XXSP,2013-06-18 09:55:00,
2013-06-18 06:00:00,57.4,53.9,29.97,NE,45,0.0,9.6,88,0.00,,,0.00,WUHU21623XXSP,2013-06-18 10:00:00,
2013-06-18 06:05:00,57.4,53.5,29.97,NE,45,6.3,9.6,87,0.00,,,0.00,WUHU21623XXSP,2013-06-18 10:05:00,
2013-06-18 06:10:00,57.0,53.2,29.97,NE,45,1.6,6.5,87,0.00,,,0.00,WUHU21623XXSP,2013-06-18 10:10:00,
2013-06-18 06:15:00,57.0,52.8,29.97,NE,45,0.0,4.9,86,0.00,,,0.00,WUHU21623XXSP,2013-06-18 10:15:00,
2013-06-18 06:20:00,57.0,52.8,29.97,ENE,67,0.0,7.6,86,0.00,,,0.00,WUHU21623XXSP,2013-06-18 10:20:00,
2013-06-18 06:25:00,57.0,52.8,29.98,ENE,67,0.0,7.8,86,0.00,,,0.00,WUHU21623XXSP,2013-06-18 10:25:00,
2013-06-18 06:30:00,57.0,52.5,29.97,NNE,22,5.4,7.8,85,0.00,,,0.00,WUHU21623XXSP,2013-06-18 10:30:00,
2013-06-18 06:35:00,57.2,52.7,29.98,NNE,22,2.5,6.5,85,0.00,,,0.00,WUHU21623XXSP,2013-06-18 10:35:00,
2013-06-18 06:40:00,57.0,52.2,29.98,NNE,22,4.3,11.4,84,0.00,,,0.00,WUHU21623XXSP,2013-06-18 10:40:00,
2013-06-18 06:45:00,57.0,52.2,29.98,NNE,22,5.8,11.4,84,0.00,,,0.00,WUHU21623XXSP,2013-06-18 10:45:00,
2013-06-18 06:50:00,57.2,52.4,29.98,NE,45,5.1,7.8,84,0.00,,,0.00,WUHU21623XXSP,2013-06-18 10:50:00,
2013-06-18 06:55:00,57.0,52.2,29.98,ENE,67,5.8,10.3,84,0.00,,,0.00,WUHU21623XXSP,2013-06-18 10:55:00,
2013-06-18 07:00:00,57.0,52.2,29.98,NE,45,6.5,10.7,84,0.00,,,0.00,WUHU21623XXSP,2013-06-18 11:00:00,
2013-06-18 07:05:00,57.0,52.5,29.98,NNE,22,1.6,10.7,85,0.00,,,0.00,WUHU21623XXSP,2013-06-18 11:05:00,
2013-06-18 07:10:00,57.0,52.5,29.98,NNE,22,6.7,11.9,85,0.00,,,0.00,WUHU21623XXSP,2013-06-18 11:10:00,
2013-06-18 07:15:00,57.0,52.5,29.99,NNE,22,0.0,11.9,85,0.00,,,0.00,WUHU21623XXSP,2013-06-18 11:15:00,
2013-06-18 07:20:00,57.2,53.0,29.99,NE,45,0.0,8.5,86,0.00,,,0.00,WUHU21623XXSP,2013-06-18 11:20:00,
2013-06-18 07:25:00,57.2,52.7,29.98,NNE,22,0.0,11.0,85,0.00,,,0.00,WUHU21623XXSP,2013-06-18 11:25:00,
2013-06-18 07:30:00,57.4,52.9,29.98,ENE,67,6.3,11.0,85,0.00,,,0.00,WUHU21623XXSP,2013-06-18 11:30:00,
2013-06-18 07:35:00,57.4,52.6,29.99,NE,45,0.0,9.4,84,0.00,,,0.00,WUHU21623XXSP,2013-06-18 11:35:00,
2013-06-18 07:40:00,57.4,52.6,29.99,NNE,22,3.8,9.4,84,0.00,,,0.00,WUHU21623XXSP,2013-06-18 11:40:00,
2013-06-18 07:45:00,57.4,52.6,29.99,ENE,67,7.2,20.6,84,0.00,,,0.00,WUHU21623XXSP,2013-06-18 11:45:00,
2013-06-18 07:50:00,57.2,52.1,29.99,NE,45,7.6,20.6,83,0.00,,,0.00,WUHU21623XXSP,2013-06-18 11:50:00,
2013-06-18 07:55:00,57.0,51.9,30.00,NE,45,7.8,18.1,83,0.00,,,0.00,WUHU21623XXSP,2013-06-18 11:55:00,
2013-06-18 08:00:00,57.0,51.9,30.00,NNE,22,6.7,14.8,83,0.00,,,0.00,WUHU21623XXSP,2013-06-18 12:00:00,
2013-06-18 08:05:00,56.8,52.0,30.00,NNE,22,5.4,14.8,84,0.00,,,0.00,WUHU21623XXSP,2013-06-18 12:05:00,
2013-06-18 08:10:00,56.5,51.7,30.00,NNE,22,11.6,16.1,84,0.00,,,0.00,WUHU21623XXSP,2013-06-18 12:10:00,
2013-06-18 08:15:00,56.3,51.8,30.00,ENE,67,0.0,19.5,85,0.00,,,0.00,WUHU21623XXSP,2013-06-18 12:15:00,
2013-06-18 08:20:00,56.3,51.5,30.01,NE,45,16.3,19.5,84,0.00,,,0.00,WUHU21623XXSP,2013-06-18 12:20:00,
2013-06-18 08:25:00,56.3,51.2,30.01,NE,45,0.0,17.7,83,0.00,,,0.00,WUHU21623XXSP,2013-06-18 12:25:00,
2013-06-18 08:30:00,56.5,51.3,30.00,ENE,67,2.9,17.4,83,0.00,,,0.00,WUHU21623XXSP,2013-06-18 12:30:00,
2013-06-18 08:35:00,57.4,52.2,30.00,NE,45,9.6,17.4,83,0.00,,,0.00,WUHU21623XXSP,2013-06-18 12:35:00,
2013-06-18 08:40:00,57.7,52.3,30.00,ENE,67,6.7,13.4,82,0.00,,,0.00,WUHU21623XXSP,2013-06-18 12:40:00,
2013-06-18 08:45:00,57.9,52.4,30.00,ENE,67,6.5,13.4,82,0.00,,,0.00,WUHU21623XXSP,2013-06-18 12:45:00,
2013-06-18 08:50:00,58.6,53.2,30.01,ESE,112,8.5,15.9,82,0.00,,,0.00,WUHU21623XXSP,2013-06-18 12:50:00,
2013-06-18 08:55:00,59.4,53.6,30.01,ESE,112,5.8,15.9,81,0.00,,,0.00,WUHU21623XXSP,2013-06-18 12:55:00,
2013-06-18 09:00:00,59.2,53.1,30.01,East,90,0.0,12.3,80,0.00,,,0.00,WUHU21623XXSP,2013-06-18 13:00:00,
2013-06-18 09:05:00,58.8,52.0,30.01,NE,45,6.9,13.9,78,0.00,,,0.00,WUHU21623XXSP,2013-06-18 13:05:00,
2013-06-18 09:10:00,59.4,52.5,30.01,ENE,67,10.5,16.6,78,0.00,,,0.00,WUHU21623XXSP,2013-06-18 13:10:00,
2013-06-18 09:15:00,60.1,53.6,30.02,ENE,67,6.5,16.6,79,0.00,,,0.00,WUHU21623XXSP,2013-06-18 13:15:00,
2013-06-18 09:20:00,60.4,53.6,30.02,ENE,67,12.8,13.0,78,0.00,,,0.00,WUHU21623XXSP,2013-06-18 13:20:00,
2013-06-18 09:25:00,60.1,52.9,30.01,East,90,6.3,16.3,77,0.00,,,0.00,WUHU21623XXSP,2013-06-18 13:25:00,
2013-06-18 09:30:00,59.9,53.1,30.01,ENE,67,8.7,16.3,78,0.00,,,0.00,WUHU21623XXSP,2013-06-18 13:30:00,
2013-06-18 09:35:00,59.5,52.3,30.01,ESE,112,4.7,15.4,77,0.00,,,0.00,WUHU21623XXSP,2013-06-18 13:35:00,
2013-06-18 09:40:00,59.5,52.3,30.01,NE,45,0.0,15.4,77,0.00,,,0.00,WUHU21623XXSP,2013-06-18 13:40:00,
2013-06-18 09:45:00,60.6,53.8,30.01,NE,45,4.5,12.8,78,0.00,,,0.00,WUHU21623XXSP,2013-06-18 13:45:00,
2013-06-18 09:50:00,61.5,54.2,30.02,NE,45,6.5,14.1,77,0.00,,,0.00,WUHU21623XXSP,2013-06-18 13:50:00,
2013-06-18 09:55:00,61.9,53.5,30.02,NE,45,0.0,14.1,74,0.00,,,0.00,WUHU21623XXSP,2013-06-18 13:55:00,
2013-06-18 10:00:00,61.7,53.3,30.02,ENE,67,0.0,12.3,74,0.00,,,0.00,WUHU21623XXSP,2013-06-18 14:00:00,
2013-06-18 10:05:00,61.5,53.2,30.02,ENE,67,3.1,13.0,74,0.00,,,0.00,WUHU21623XXSP,2013-06-18 14:05:00,
2013-06-18 10:10:00,61.5,53.2,30.02,NNE,22,0.0,13.0,74,0.00,,,0.00,WUHU21623XXSP,2013-06-18 14:10:00,
2013-06-18 10:15:00,61.5,53.5,30.02,East,90,3.1,10.3,75,0.00,,,0.00,WUHU21623XXSP,2013-06-18 14:15:00,
2013-06-18 10:20:00,61.9,53.5,30.02,NNE,22,6.9,10.3,74,0.00,,,0.00,WUHU21623XXSP,2013-06-18 14:20:00,
2013-06-18 10:26:00,61.9,53.5,30.02,North,0,6.3,12.1,74,0.00,,,0.00,WUHU21623XXSP,2013-06-18 14:26:00,
2013-06-18 10:31:00,62.1,53.7,30.02,ENE,67,6.3,12.1,74,0.00,,,0.00,WUHU21623XXSP,2013-06-18 14:31:00,
2013-06-18 10:36:00,63.3,54.9,30.01,ENE,67,6.0,11.9,74,0.00,,,0.00,WUHU21623XXSP,2013-06-18 14:36:00,
2013-06-18 10:41:00,64.0,55.6,30.01,ENE,67,4.0,10.7,74,0.00,,,0.00,WUHU21623XXSP,2013-06-18 14:41:00,
2013-06-18 10:46:00,64.6,55.7,30.01,NNE,22,1.8,10.7,73,0.00,,,0.00,WUHU21623XXSP,2013-06-18 14:46:00,
2013-06-18 10:51:00,65.1,56.2,30.01,ENE,67,5.6,10.1,73,0.00,,,0.00,WUHU21623XXSP,2013-06-18 14:51:00,
2013-06-18 10:56:00,65.7,56.4,30.01,NE,45,0.0,10.1,72,0.00,,,0.00,WUHU21623XXSP,2013-06-18 14:56:00,
2013-06-18 11:01:00,65.8,55.8,30.02,ESE,112,11.0,11.0,70,0.00,,,0.00,WUHU21623XXSP,2013-06-18 15:01:00,
2013-06-18 11:06:00,65.5,55.0,30.02,NNE,22,0.0,12.3,69,0.00,,,0.00,WUHU21623XXSP,2013-06-18 15:06:00,
2013-06-18 11:11:00,65.5,55.0,30.02,ESE,112,4.9,12.3,69,0.00,,,0.00,WUHU21623XXSP,2013-06-18 15:11:00,
2013-06-18 11:16:00,65.3,55.7,30.02,NE,45,0.0,12.3,71,0.00,,,0.00,WUHU21623XXSP,2013-06-18 15:16:00,
2013-06-18 11:21:00,65.8,55.0,30.02,NNE,22,7.6,10.7,68,0.00,,,0.00,WUHU21623XXSP,2013-06-18 15:21:00,
2013-06-18 11:26:00,65.3,55.3,30.02,NNE,22,6.0,10.7,70,0.00,,,0.00,WUHU21623XXSP,2013-06-18 15:26:00,
2013-06-18 11:31:00,65.1,54.3,30.02,NNE,22,7.2,12.8,68,0.00,,,0.00,WUHU21623XXSP,2013-06-18 15:31:00,
2013-06-18 11:36:00,64.9,54.6,30.02,NNW,337,2.9,12.8,69,0.00,,,0.00,WUHU21623XXSP,2013-06-18 15:36:00,
2013-06-18 11:41:00,66.7,57.4,30.02,NE,45,6.0,12.8,72,0.00,,,0.00,WUHU21623XXSP,2013-06-18 15:41:00,
2013-06-18 11:46:00,66.4,55.0,30.03,NNE,22,2.0,12.3,67,0.00,,,0.00,WUHU21623XXSP,2013-06-18 15:46:00,
2013-06-18 11:51:00,66.0,55.1,30.03,NNE,22,10.7,12.3,68,0.00,,,0.00,WUHU21623XXSP,2013-06-18 15:51:00,
2013-06-18 11:56:00,65.7,54.8,30.03,North,0,0.0,12.1,68,0.00,,,0.00,WUHU21623XXSP,2013-06-18 15:56:00,
2013-06-18 12:01:00,65.8,55.4,30.03,East,90,6.3,12.1,69,0.00,,,0.00,WUHU21623XXSP,2013-06-18 16:01:00,
2013-06-18 12:06:00,66.6,56.0,30.02,ENE,67,0.7,12.1,69,0.00,,,0.00,WUHU21623XXSP,2013-06-18 16:06:00,
2013-06-18 12:11:00,67.1,56.6,30.02,ESE,112,0.0,10.3,69,0.00,,,0.00,WUHU21623XXSP,2013-06-18 16:11:00,
2013-06-18 12:16:00,67.6,55.8,30.02,NNE,22,0.0,10.3,66,0.00,,,0.00,WUHU21623XXSP,2013-06-18 16:16:00,
2013-06-18 12:21:00,67.5,55.7,30.02,East,90,0.0,11.0,66,0.00,,,0.00,WUHU21623XXSP,2013-06-18 16:21:00,
2013-06-18 12:26:00,67.6,55.0,30.02,North,0,0.0,11.0,64,0.00,,,0.00,WUHU21623XXSP,2013-06-18 16:26:00,
2013-06-18 12:31:00,68.2,55.9,30.02,North,0,10.3,10.5,65,0.00,,,0.00,WUHU21623XXSP,2013-06-18 16:31:00,
2013-06-18 12:36:00,68.4,56.1,30.02,East,90,6.7,10.3,65,0.00,,,0.00,WUHU21623XXSP,2013-06-18 16:36:00,
2013-06-18 12:41:00,68.4,55.7,30.03,NNE,22,14.3,15.4,64,0.00,,,0.00,WUHU21623XXSP,2013-06-18 16:41:00,
2013-06-18 12:46:00,67.3,54.2,30.02,NE,45,1.3,15.9,63,0.00,,,0.00,WUHU21623XXSP,2013-06-18 16:46:00,
2013-06-18 12:51:00,67.3,54.2,30.02,North,0,10.7,15.9,63,0.00,,,0.00,WUHU21623XXSP,2013-06-18 16:51:00,
2013-06-18 12:56:00,67.3,54.6,30.02,NNE,22,17.4,17.4,64,0.00,,,0.00,WUHU21623XXSP,2013-06-18 16:56:00,
2013-06-18 13:01:00,67.3,54.2,30.02,NW,315,10.7,17.4,63,0.00,,,0.00,WUHU21623XXSP,2013-06-18 17:01:00,
2013-06-18 13:06:00,67.6,54.6,30.03,North,0,8.7,15.9,63,0.00,,,0.00,WUHU21623XXSP,2013-06-18 17:06:00,
2013-06-18 13:11:00,67.8,54.3,30.03,East,90,4.3,15.9,62,0.00,,,0.00,WUHU21623XXSP,2013-06-18 17:11:00,
2013-06-18 13:16:00,68.7,55.2,30.03,NNE,22,0.0,13.6,62,0.00,,,0.00,WUHU21623XXSP,2013-06-18 17:16:00,
2013-06-18 13:21:00,68.7,54.1,30.03,ENE,67,8.9,13.6,62,0.00,,,0.00,WUHU21623XXSP,2013-06-18 17:21:00,
2013-06-18 13:26:00,68.9,54.9,30.03,East,90,3.1,12.3,61,0.00,,,0.00,WUHU21623XXSP,2013-06-18 17:26:00,
2013-06-18 13:31:00,68.7,55.2,30.03,East,90,0.0,12.3,62,0.00,,,0.00,WUHU21623XXSP,2013-06-18 17:31:00,
2013-06-18 13:36:00,69.4,55.5,30.03,East,90,0.0,12.1,61,0.00,,,0.00,WUHU21623XXSP,2013-06-18 17:36:00,
2013-06-18 13:41:00,68.5,52.7,30.03,NNE,22,10.5,16.8,57,0.00,,,0.00,WUHU21623XXSP,2013-06-18 17:41:00,
2013-06-18 13:46:00,67.3,52.0,30.03,NNE,22,11.0,16.8,58,0.00,,,0.00,WUHU21623XXSP,2013-06-18 17:46:00,
2013-06-18 13:52:00,68.2,53.3,30.03,NNE,22,0.0,13.2,59,0.00,,,0.00,WUHU21623XXSP,2013-06-18 17:52:00,
2013-06-18 13:57:00,68.7,52.5,30.03,NE,45,12.1,12.5,57,0.00,,,0.00,WUHU21623XXSP,2013-06-18 17:57:00,
2013-06-18 14:01:00,69.3,54.4,30.03,North,0,5.4,14.3,59,0.00,,,0.00,WUHU21623XXSP,2013-06-18 18:01:00,
2013-06-18 14:06:00,69.3,52.9,30.03,ENE,67,10.5,16.6,56,0.00,,,0.00,WUHU21623XXSP,2013-06-18 18:06:00,
2013-06-18 14:11:00,69.3,52.9,30.03,NE,45,8.3,16.6,56,0.00,,,0.00,WUHU21623XXSP,2013-06-18 18:11:00,
2013-06-18 14:17:00,69.1,51.7,30.03,ENE,67,11.6,14.5,54,0.00,,,0.00,WUHU21623XXSP,2013-06-18 18:17:00,
2013-06-18 14:22:00,69.1,51.7,30.02,ENE,67,10.7,17.0,54,0.00,,,0.00,WUHU21623XXSP,2013-06-18 18:22:00,
2013-06-18 14:27:00,69.4,52.5,30.02,ENE,67,11.2,17.0,55,0.00,,,0.00,WUHU21623XXSP,2013-06-18 18:27:00,
2013-06-18 14:32:00,69.1,50.7,30.02,NE,45,0.0,16.8,52,0.00,,,0.00,WUHU21623XXSP,2013-06-18 18:32:00,
2013-06-18 14:37:00,69.4,51.0,30.02,NE,45,6.9,16.8,52,0.00,,,0.00,WUHU21623XXSP,2013-06-18 18:37:00,
2013-06-18 14:42:00,69.6,51.7,30.02,East,90,12.8,15.4,53,0.00,,,0.00,WUHU21623XXSP,2013-06-18 18:42:00,
2013-06-18 14:47:00,69.8,52.4,30.02,NE,45,2.9,17.0,54,0.00,,,0.00,WUHU21623XXSP,2013-06-18 18:47:00,
2013-06-18 14:52:00,70.3,51.9,30.02,ENE,67,5.4,17.0,52,0.00,,,0.00,WUHU21623XXSP,2013-06-18 18:52:00,
2013-06-18 14:57:00,70.3,51.4,30.02,NE,45,6.3,14.8,51,0.00,,,0.00,WUHU21623XXSP,2013-06-18 18:57:00,
2013-06-18 15:02:00,69.6,49.6,30.02,NNE,22,12.5,15.9,49,0.00,,,0.00,WUHU21623XXSP,2013-06-18 19:02:00,
2013-06-18 15:07:00,69.6,49.0,30.02,NNW,337,8.5,15.9,48,0.00,,,0.00,WUHU21623XXSP,2013-06-18 19:07:00,
2013-06-18 15:12:00,69.6,50.2,30.02,NNE,22,5.4,13.2,50,0.00,,,0.00,WUHU21623XXSP,2013-06-18 19:12:00,
2013-06-18 15:17:00,70.0,50.5,30.02,ENE,67,5.6,15.9,50,0.00,,,0.00,WUHU21623XXSP,2013-06-18 19:17:00,
2013-06-18 15:22:00,70.5,51.0,30.02,ENE,67,4.0,15.9,50,0.00,,,0.00,WUHU21623XXSP,2013-06-18 19:22:00,
2013-06-18 15:27:00,70.5,50.4,30.02,NE,45,12.1,14.1,49,0.00,,,0.00,WUHU21623XXSP,2013-06-18 19:27:00,
2013-06-18 15:32:00,70.9,52.3,30.02,WSW,247,0.0,14.1,52,0.00,,,0.00,WUHU21623XXSP,2013-06-18 19:32:00,
2013-06-18 15:37:00,70.9,50.1,30.02,WSW,247,6.5,13.6,48,0.00,,,0.00,WUHU21623XXSP,2013-06-18 19:37:00,
2013-06-18 15:42:00,71.2,50.5,30.02,WSW,247,6.7,16.6,48,0.00,,,0.00,WUHU21623XXSP,2013-06-18 19:42:00,
2013-06-18 15:47:00,71.2,49.9,30.02,WSW,247,7.4,16.6,47,0.00,,,0.00,WUHU21623XXSP,2013-06-18 19:47:00,
2013-06-18 15:52:00,70.9,49.0,30.02,WSW,247,9.4,18.8,46,0.00,,,0.00,WUHU21623XXSP,2013-06-18 19:52:00,
2013-06-18 15:57:00,70.9,49.5,30.02,WSW,247,8.5,18.8,47,0.00,,,0.00,WUHU21623XXSP,2013-06-18 19:57:00,
2013-06-18 16:02:00,71.2,49.9,30.02,WSW,247,6.9,13.2,47,0.00,,,0.00,WUHU21623XXSP,2013-06-18 20:02:00,
2013-06-18 16:07:00,71.4,50.0,30.02,WSW,247,6.9,15.4,47,0.00,,,0.00,WUHU21623XXSP,2013-06-18 20:07:00,
2013-06-18 16:12:00,71.4,51.2,30.01,WSW,247,12.1,20.8,49,0.00,,,0.00,WUHU21623XXSP,2013-06-18 20:12:00,
2013-06-18 16:17:00,71.4,49.4,30.01,East,90,2.9,20.8,46,0.00,,,0.00,WUHU21623XXSP,2013-06-18 20:17:00,
2013-06-18 16:22:00,72.1,50.7,30.01,East,90,6.9,14.1,47,0.00,,,0.00,WUHU21623XXSP,2013-06-18 20:22:00,
2013-06-18 16:27:00,71.4,50.0,30.01,WSW,247,0.0,14.1,47,0.00,,,0.00,WUHU21623XXSP,2013-06-18 20:27:00,
2013-06-18 16:32:00,71.8,50.4,30.01,WSW,247,4.9,11.6,47,0.00,,,0.00,WUHU21623XXSP,2013-06-18 20:32:00,
2013-06-18 16:37:00,71.8,48.0,30.01,WSW,247,7.2,12.1,43,0.00,,,0.00,WUHU21623XXSP,2013-06-18 20:37:00,
2013-06-18 16:42:00,71.8,49.2,30.01,WSW,247,8.5,14.8,45,0.00,,,0.00,WUHU21623XXSP,2013-06-18 20:42:00,
2013-06-18 16:47:00,71.8,50.4,30.01,WSW,247,12.3,14.8,47,0.00,,,0.00,WUHU21623XXSP,2013-06-18 20:47:00,
2013-06-18 16:52:00,71.4,46.5,30.01,WSW,247,2.9,13.9,41,0.00,,,0.00,WUHU21623XXSP,2013-06-18 20:52:00,
2013-06-18 16:57:00,71.8,49.2,30.01,WSW,247,5.4,13.9,45,0.00,,,0.00,WUHU21623XXSP,2013-06-18 20:57:00,
2013-06-18 17:02:00,72.1,48.3,30.01,WSW,247,0.0,12.3,43,0.00,,,0.00,WUHU21623XXSP,2013-06-18 21:02:00,
2013-06-18 17:07:00,72.0,48.1,30.00,WSW,247,6.5,15.9,43,0.00,,,0.00,WUHU21623XXSP,2013-06-18 21:07:00,
2013-06-18 17:12:00,71.4,47.7,30.00,WSW,247,11.4,19.7,43,0.00,,,0.00,WUHU21623XXSP,2013-06-18 21:12:00,
2013-06-18 17:17:00,71.2,47.5,30.00,WSW,247,11.0,19.7,43,0.00,,,0.00,WUHU21623XXSP,2013-06-18 21:17:00,
2013-06-18 17:22:00,70.9,47.8,30.00,WSW,247,13.4,16.1,44,0.00,,,0.00,WUHU21623XXSP,2013-06-18 21:22:00,
2013-06-18 17:27:00,70.9,48.4,30.00,WSW,247,0.2,15.7,45,0.00,,,0.00,WUHU21623XXSP,2013-06-18 21:27:00,
2013-06-18 17:32:00,71.2,48.7,30.00,WSW,247,8.7,16.1,45,0.00,,,0.00,WUHU21623XXSP,2013-06-18 21:32:00,
2013-06-18 17:37:00,70.7,48.2,30.00,WSW,247,1.3,16.1,45,0.00,,,0.00,WUHU21623XXSP,2013-06-18 21:37:00,
2013-06-18 17:42:00,70.9,48.4,30.00,WSW,247,7.6,16.1,45,0.00,,,0.00,WUHU21623XXSP,2013-06-18 21:42:00,
2013-06-18 17:47:00,70.7,48.2,30.00,WSW,247,9.6,13.4,45,0.00,,,0.00,WUHU21623XXSP,2013-06-18 21:47:00,
2013-06-18 17:52:00,70.5,48.0,30.00,WSW,247,10.7,16.3,45,0.00,,,0.00,WUHU21623XXSP,2013-06-18 21:52:00,
2013-06-18 17:57:00,70.2,48.3,30.00,WSW,247,2.0,16.3,46,0.00,,,0.00,WUHU21623XXSP,2013-06-18 21:57:00,
2013-06-18 18:02:00,69.1,46.7,30.00,WSW,247,6.7,19.7,45,0.00,,,0.00,WUHU21623XXSP,2013-06-18 22:02:00,
2013-06-18 18:07:00,69.1,48.5,30.00,WSW,247,6.5,19.7,48,0.00,,,0.00,WUHU21623XXSP,2013-06-18 22:07:00,
2013-06-18 18:12:00,69.1,47.3,30.00,WSW,247,9.6,11.2,46,0.00,,,0.00,WUHU21623XXSP,2013-06-18 22:12:00,
2013-06-18 18:17:00,68.9,47.8,30.01,WSW,247,12.5,13.6,47,0.00,,,0.00,WUHU21623XXSP,2013-06-18 22:17:00,
2013-06-18 18:22:00,68.5,47.4,30.01,WSW,247,0.0,13.6,47,0.00,,,0.00,WUHU21623XXSP,2013-06-18 22:22:00,
2013-06-18 18:27:00,68.5,47.4,30.00,WSW,247,9.2,11.2,47,0.00,,,0.00,WUHU21623XXSP,2013-06-18 22:27:00,
2013-06-18 18:32:00,68.5,48.0,30.00,WSW,247,6.9,10.3,48,0.00,,,0.00,WUHU21623XXSP,2013-06-18 22:32:00,
2013-06-18 18:37:00,68.4,47.3,30.01,WSW,247,0.0,11.2,47,0.00,,,0.00,WUHU21623XXSP,2013-06-18 22:37:00,
2013-06-18 18:42:00,68.5,48.0,30.01,WSW,247,0.0,11.2,48,0.00,,,0.00,WUHU21623XXSP,2013-06-18 22:42:00,
2013-06-18 18:48:00,68.4,47.9,30.01,WSW,247,3.8,8.9,48,0.00,,,0.00,WUHU21623XXSP,2013-06-18 22:48:00,
2013-06-18 18:53:00,68.0,47.6,30.01,WSW,247,0.0,11.6,48,0.00,,,0.00,WUHU21623XXSP,2013-06-18 22:53:00,
2013-06-18 18:58:00,67.8,47.4,30.01,WSW,247,0.0,11.6,48,0.00,,,0.00,WUHU21623XXSP,2013-06-18 22:58:00,
2013-06-18 19:03:00,67.6,47.2,30.01,WSW,247,0.0,10.1,48,0.00,,,0.00,WUHU21623XXSP,2013-06-18 23:03:00,
2013-06-18 19:08:00,67.3,47.5,30.01,WSW,247,0.0,11.2,49,0.00,,,0.00,WUHU21623XXSP,2013-06-18 23:08:00,
2013-06-18 19:13:00,66.9,47.2,30.01,WSW,247,6.7,13.4,49,0.00,,,0.00,WUHU21623XXSP,2013-06-18 23:13:00,
2013-06-18 19:18:00,66.6,47.4,30.01,WSW,247,11.9,13.4,50,0.00,,,0.00,WUHU21623XXSP,2013-06-18 23:18:00,
2013-06-18 19:23:00,66.4,46.7,30.02,WSW,247,0.0,11.9,49,0.00,,,0.00,WUHU21623XXSP,2013-06-18 23:23:00,
2013-06-18 19:28:00,66.2,47.1,30.02,WSW,247,2.0,7.4,50,0.00,,,0.00,WUHU21623XXSP,2013-06-18 23:28:00,
2013-06-18 19:33:00,66.0,47.4,30.02,WSW,247,2.9,6.9,51,0.00,,,0.00,WUHU21623XXSP,2013-06-18 23:33:00,
2013-06-18 19:38:00,65.7,47.1,30.02,WSW,247,7.6,7.6,51,0.00,,,0.00,WUHU21623XXSP,2013-06-18 23:38:00,
2013-06-18 19:43:00,65.5,47.4,30.02,WSW,247,0.0,7.6,52,0.00,,,0.00,WUHU21623XXSP,2013-06-18 23:43:00,
2013-06-18 19:48:00,65.3,47.2,30.02,NE,45,0.0,2.5,52,0.00,,,0.00,WUHU21623XXSP,2013-06-18 23:48:00,
2013-06-18 19:53:00,65.1,47.0,30.02,ENE,67,0.0,4.7,52,0.00,,,0.00,WUHU21623XXSP,2013-06-18 23:53:00,
2013-06-18 19:58:00,64.9,47.3,30.02,NE,45,0.0,4.7,53,0.00,,,0.00,WUHU21623XXSP,2013-06-18 23:58:00,
2013-06-18 20:03:00,64.8,47.1,30.02,NE,45,0.0,4.0,53,0.00,,,0.00,WUHU21623XXSP,2013-06-19 00:03:00,
2013-06-18 20:08:00,64.6,47.0,30.02,ENE,67,0.0,4.0,53,0.00,,,0.00,WUHU21623XXSP,2013-06-19 00:08:00,
2013-06-18 20:13:00,64.6,47.0,30.02,ENE,67,0.0,0.0,53,0.00,,,0.00,WUHU21623XXSP,2013-06-19 00:13:00,
2013-06-18 20:18:00,64.2,47.6,30.03,ENE,67,0.0,0.0,55,0.00,,,0.00,WUHU21623XXSP,2013-06-19 00:18:00,
2013-06-18 20:23:00,63.9,47.3,30.03,ENE,67,0.0,0.0,55,0.00,,,0.00,WUHU21623XXSP,2013-06-19 00:23:00,
2013-06-18 20:28:00,63.5,47.4,30.03,ENE,67,0.0,0.0,56,0.00,,,0.00,WUHU21623XXSP,2013-06-19 00:28:00,
2013-06-18 20:33:00,63.1,47.6,30.03,ENE,67,0.0,0.0,57,0.00,,,0.00,WUHU21623XXSP,2013-06-19 00:33:00,
2013-06-18 20:38:00,62.6,47.6,30.03,ENE,67,0.0,0.0,58,0.00,,,0.00,WUHU21623XXSP,2013-06-19 00:38:00,
2013-06-18 20:43:00,62.2,48.2,30.03,ENE,67,0.0,0.0,60,0.00,,,0.00,WUHU21623XXSP,2013-06-19 00:43:00,
2013-06-18 20:48:00,61.7,48.6,30.04,ENE,67,0.0,0.0,62,0.00,,,0.00,WUHU21623XXSP,2013-06-19 00:48:00,
2013-06-18 20:53:00,60.8,48.6,30.04,ENE,67,0.0,0.0,64,0.00,,,0.00,WUHU21623XXSP,2013-06-19 00:53:00,
2013-06-18 20:58:00,59.9,48.1,30.04,ENE,67,0.0,0.0,65,0.00,,,0.00,WUHU21623XXSP,2013-06-19 00:58:00,
2013-06-18 21:03:00,58.8,47.9,30.04,ENE,67,0.0,0.0,67,0.00,,,0.00,WUHU21623XXSP,2013-06-19 01:03:00,
2013-06-18 21:08:00,58.3,47.7,30.04,ENE,67,0.0,0.0,68,0.00,,,0.00,WUHU21623XXSP,2013-06-19 01:08:00,
2013-06-18 21:13:00,57.7,47.2,30.04,ENE,67,0.0,0.0,68,0.00,,,0.00,WUHU21623XXSP,2013-06-19 01:13:00,
2013-06-18 21:18:00,57.4,47.2,30.04,ENE,67,0.0,0.0,69,0.00,,,0.00,WUHU21623XXSP,2013-06-19 01:18:00,
2013-06-18 21:23:00,56.8,47.2,30.04,ENE,67,0.0,0.0,70,0.00,,,0.00,WUHU21623XXSP,2013-06-19 01:23:00,
2013-06-18 21:28:00,56.1,47.4,30.04,North,0,0.0,0.0,72,0.00,,,0.00,WUHU21623XXSP,2013-06-19 01:28:00,
2013-06-18 21:33:00,55.8,47.2,30.04,North,0,0.0,0.0,73,0.00,,,0.00,WUHU21623XXSP,2013-06-19 01:33:00,
2013-06-18 21:38:00,55.2,47.0,30.04,North,0,0.0,0.0,74,0.00,,,0.00,WUHU21623XXSP,2013-06-19 01:38:00,
2013-06-18 21:43:00,55.0,47.2,30.04,North,0,0.0,0.0,75,0.00,,,0.00,WUHU21623XXSP,2013-06-19 01:43:00,
2013-06-18 21:48:00,54.7,46.9,30.05,North,0,0.0,0.0,75,0.00,,,0.00,WUHU21623XXSP,2013-06-19 01:48:00,
2013-06-18 21:53:00,54.3,46.9,30.05,NNE,22,0.0,0.0,76,0.00,,,0.00,WUHU21623XXSP,2013-06-19 01:53:00,
2013-06-18 21:58:00,54.5,48.8,30.05,NNE,22,0.0,0.0,81,0.00,,,0.00,WUHU21623XXSP,2013-06-19 01:58:00,
2013-06-18 22:03:00,54.5,48.8,30.05,NNE,22,0.0,0.0,81,0.00,,,0.00,WUHU21623XXSP,2013-06-19 02:03:00,
2013-06-18 22:08:00,54.3,48.6,30.05,NNE,22,0.0,0.0,81,0.00,,,0.00,WUHU21623XXSP,2013-06-19 02:08:00,
2013-06-18 22:13:00,54.0,48.3,30.05,NNE,22,0.0,0.0,81,0.00,,,0.00,WUHU21623XXSP,2013-06-19 02:13:00,
2013-06-18 22:18:00,53.8,48.1,30.06,NNE,22,0.0,0.0,81,0.00,,,0.00,WUHU21623XXSP,2013-06-19 02:18:00,
2013-06-18 22:23:00,53.4,48.1,30.06,NNE,22,0.0,0.0,82,0.00,,,0.00,WUHU21623XXSP,2013-06-19 02:23:00,
2013-06-18 22:28:00,53.2,47.9,30.06,NNE,22,0.0,0.0,82,0.00,,,0.00,WUHU21623XXSP,2013-06-19 02:28:00,
2013-06-18 22:33:00,53.1,48.0,30.06,NNE,22,0.0,0.0,83,0.00,,,0.00,WUHU21623XXSP,2013-06-19 02:33:00,
2013-06-18 22:38:00,52.9,47.9,30.06,NNE,22,0.0,0.0,83,0.00,,,0.00,WUHU21623XXSP,2013-06-19 02:38:00,
2013-06-18 22:43:00,52.9,48.2,30.06,NNE,22,0.0,0.0,84,0.00,,,0.00,WUHU21623XXSP,2013-06-19 02:43:00,
2013-06-18 22:48:00,52.7,48.0,30.06,NNE,22,0.0,0.0,84,0.00,,,0.00,WUHU21623XXSP,2013-06-19 02:48:00,
2013-06-18 22:53:00,52.5,47.8,30.06,North,0,0.0,0.2,84,0.00,,,0.00,WUHU21623XXSP,2013-06-19 02:53:00,
2013-06-18 22:58:00,52.3,47.9,30.06,North,0,0.0,0.2,85,0.00,,,0.00,WUHU21623XXSP,2013-06-19 02:58:00,
2013-06-18 23:03:00,52.3,47.9,30.06,North,0,0.0,0.0,85,0.00,,,0.00,WUHU21623XXSP,2013-06-19 03:03:00,
2013-06-18 23:08:00,52.3,47.9,30.06,North,0,0.0,0.0,85,0.00,,,0.00,WUHU21623XXSP,2013-06-19 03:08:00,
2013-06-18 23:13:00,52.3,48.2,30.06,North,0,0.0,4.3,86,0.00,,,0.00,WUHU21623XXSP,2013-06-19 03:13:00,
2013-06-18 23:18:00,52.3,48.2,30.06,North,0,0.9,4.3,86,0.00,,,0.00,WUHU21623XXSP,2013-06-19 03:18:00,
2013-06-18 23:23:00,52.5,48.4,30.06,NNW,337,0.0,4.5,86,0.00,,,0.00,WUHU21623XXSP,2013-06-19 03:23:00,
2013-06-18 23:28:00,52.9,49.1,30.06,North,0,0.0,4.5,87,0.00,,,0.00,WUHU21623XXSP,2013-06-19 03:28:00,
2013-06-18 23:33:00,53.2,49.4,30.06,NNW,337,0.0,4.3,87,0.00,,,0.00,WUHU21623XXSP,2013-06-19 03:33:00,
2013-06-18 23:38:00,53.2,49.4,30.06,NNW,337,0.0,0.7,87,0.00,,,0.00,WUHU21623XXSP,2013-06-19 03:38:00,
2013-06-18 23:43:00,53.2,49.4,30.06,NNW,337,0.0,0.0,87,0.00,,,0.00,WUHU21623XXSP,2013-06-19 03:43:00,
2013-06-18 23:48:00,53.1,49.0,30.06,NNW,337,0.0,0.0,86,0.00,,,0.00,WUHU21623XXSP,2013-06-19 03:48:00,
2013-06-18 23:53:00,52.7,48.6,30.06,NNW,337,0.0,0.0,86,0.00,,,0.00,WUHU21623XXSP,2013-06-19 03:53:00,
2013-06-18 23:58:00,52.5,48.4,30.06,NNW,337,0.0,0.0,86,0.00,,,0.00,WUHU21623XXSP,2013-06-19 03:58:00,